User: anonymous   Login
Location: Observatoire
(46.1952°N, 5.3391°E)
Time: 07:28:27
(UTC+02:00)
Language:

CAS-4A - Orbit

View from above orbital plane
View from above orbital plane
View from above satellite
View from above satellite

Ground track
Ground track

The orbit data is extracted from the following two-line orbital elements,

1 42761U 17034D   24108.61478856  .00026322  00000-0  10146-2 0  9994
2 42761  43.0168 206.6732 0012597 311.1137  48.8626 15.25773201378152
Epoch (UTC): 17 April 2024 14:45:17
Eccentricity: 0.0012597
inclination: 43.0168°
perigee height: 480 km
apogee height: 497 km
right ascension of ascending node: 206.6732°
argument of perigee: 311.1137°
revolutions per day: 15.25773201
mean anomaly at epoch: 48.8626°
orbit number at epoch: 37815

The dashed part of the orbit path shows where the satellite is in the earth's shadow,  

DLR